Home > Weather > Jefferson City > Past weeks

Flag for USA Past Weather in Jefferson City, Missouri, USA — Yesterday and Last 2 Weeks

Now
88 °F

Sunny.


Feels Like: 90 °F
Forecast: 66 / 91 °F
Wind: 6 mph from North

Location: Jefferson City Memorial Airport

Current Time: Jun 24, 2016 at 3:27:45 PM

Latest Report: Jun 24, 2016 at 2:53 PM


Visibility: 10 mi

Pressure: 29.98 "Hg

Humidity: 46%

Dew Point: 65 °F

Location of Jefferson CityLocation

Past Weather in Jefferson City — Graph

°F

Jefferson City Temperature Yesterday

Maximum temperature yesterday: 93 °F (at 3:53 PM)
Minimum temperature yesterday: 76 °F (at 11:53 PM)
Average temperature yesterday: 85 °F

High & Low Weather Summary for the Past Weeks

 TemperatureHumidityPressure
High97 °F (Jun 15, 2:53 PM)96% (Jun 13, 5:53 AM)30.18 "Hg (Jun 13, 5:53 AM)
Low64 °F (Jun 19, 4:53 AM)34% (Jun 16, 6:53 PM)29.68 "Hg (Jun 14, 5:53 PM)
Average82 °F65%29.94 "Hg
* Reported Jun 9 1:53 PM — Jun 24 1:53 PM, Jefferson City, Weather by CustomWeather, © 2016

Note: Actual official high and low records may vary slightly from our data, if they occured in-between our weather recording intervals... More about our weather records

Advertising

Jefferson City Weather History for the Previous 24 Hours

Scroll right to see more
 ConditionsComfort  
Time TempWeatherWind HumidityBarometerVisibility
1:53 PM
Fri, Jun 24
88 °FScattered clouds.10 mph55%29.99 "Hg10 mi
12:53 PM87 °FSunny.8 mph51%30.01 "Hg10 mi
11:53 AM84 °FSunny.3 mph57%30.02 "Hg10 mi
10:53 AM83 °FSunny.7 mph59%30.01 "Hg10 mi
9:53 AM80 °FSunny.3 mph62%30.03 "Hg10 mi
8:53 AM76 °FSunny.8 mph69%30.03 "Hg10 mi
7:53 AM73 °FSunny.7 mph76%30.03 "Hg10 mi
6:53 AM69 °FSunny.No wind84%30.02 "Hg10 mi
5:53 AM68 °FClear.No wind84%30.00 "Hg10 mi
4:53 AM69 °FClear.5 mph84%29.97 "Hg10 mi
3:53 AM71 °FClear.No wind81%29.95 "Hg10 mi
2:53 AM74 °FClear.8 mph74%29.94 "Hg10 mi
1:53 AM74 °FClear.3 mph76%29.96 "Hg10 mi
12:53 AM75 °FClear.5 mph74%29.96 "Hg10 mi
11:53 PM
Thu, Jun 23
76 °FClear.No wind74%29.97 "Hg10 mi
10:53 PM77 °FClear.5 mph71%29.98 "Hg10 mi
9:53 PM78 °FClear.5 mph66%29.93 "Hg10 mi
8:53 PM81 °FSunny.7 mph54%29.91 "Hg10 mi
7:53 PM86 °FSunny.6 mph45%29.88 "Hg10 mi
6:53 PM88 °FSunny.9 mph43%29.88 "Hg10 mi
5:53 PM91 °FSunny.7 mph45%29.88 "Hg10 mi
4:53 PM93 °FSunny.12 mph44%29.88 "Hg10 mi
3:53 PM93 °FSunny.10 mph46%29.89 "Hg10 mi
Weather by CustomWeather, © 2016

See weather overviewHow to use our weather pages